Powrót do katalogu

USA 521

AktywnyMilitariaLEO
NORAD 63596·PAYLOAD·🇺🇸 United States

Wystrzelony Apr 16, 2025 z Vandenberg Space Force Base

Loading…

Następne Przeloty (najbliższe 24 godziny)

TLE

NieaktualneSource: Mike McCants

Epoka: Mar 19, 2026, 03:32 UTC

1 63596U 25077A   26078.14739726 0.00000000  00000-0  00000-0 0    05
2 63596  63.3971  83.6849 0018000 293.5214  66.4786 13.38600918    09

Śledź USA 521 w czasie rzeczywistym z AllMySat

Download on the App Store